Location: Unspecified
(52.0000°N, 4.4000°E)
Time: 05:33:49
(UTC+00:00)

Cosmos 1656 - Pass Details

Date: 14 May 2025
Orbit: 796 x 848 km, 71.1° (Epoch: 14 June)

Event Time Altitude Azimuth Distance (km) Brightness Sun altitude
Rises 21:33:04 0° 326° (NW) 3,415 8.8 -14.0°
Reaches altitude 10° 21:35:38 10° 320° (NW) 2,470 7.5 -14.2°
Maximum altitude 21:40:56 43° 251° (WSW) 1,165 4.5 -14.6°
Enters shadow 21:44:58 16° 186° (S) 2,017 5.2 -14.9°
